Simultaneous Nadir Overpasses (SNOs) Predictions

Prediction of SNOs between AQUA and METOP-B Satellite Orbit:

Table of predicted SNOs for the next 14.0 days since TLE Epoch: 5/12/2017
Index Date (AQUA) Time (AQUA) Lat,Lon (AQUA) SZA (AQUA ) Date (METOP-B) Time (METOP-B) Lat,Lon (METOP-B) SZA (METOP-B ) Distance(km) Time Diff (sec)
1 05/13/2017 06:02:13 -73.77, -96.18 124.71 05/13/2017 06:01:30 -73.74, -96.18 124.72 2.53 43
2 05/13/2017 06:51:42 73.83, 71.32 55.35 05/13/2017 06:52:08 73.82, 71.33 55.34 1.08 26
3 05/16/2017 01:36:28 -73.74, -29.69 125.40 05/16/2017 01:35:51 -73.76, -29.72 125.37 3.13 37
4 05/16/2017 02:25:58 73.85, 137.70 54.71 05/16/2017 02:26:29 73.84, 137.78 54.69 3.01 31
5 05/18/2017 21:10:44 -73.77, 36.68 126.00 05/18/2017 21:10:12 -73.78, 36.73 125.98 2.03 32
6 05/18/2017 22:00:13 73.83,-155.82 54.07 05/18/2017 22:00:50 73.85,-155.77 54.08 2.84 37
7 05/21/2017 16:44:58 -73.76, 103.14 126.59 05/21/2017 16:44:33 -73.75, 103.05 126.59 2.91 25
8 05/21/2017 17:34:27 73.82, -89.36 53.47 05/21/2017 17:35:11 73.82, -89.45 53.47 2.57 44
9 05/24/2017 12:19:13 -73.75, 169.59 127.13 05/24/2017 12:18:54 -73.76, 169.49 127.11 3.24 19
10 05/24/2017 13:08:42 73.82, -22.92 52.94 05/24/2017 13:09:32 73.83, -23.01 52.95 3.08 50




NCC Satellite Simultaneous Nadir Overpasses (SNOs) Prediction Service
